Simultaneous Nadir Overpasses (SNOs) Predictions

Prediction of SNOs between GOES-16 and METOP-B Satellite Orbit:

Table of predicted SNOs for the next 14.0 days since TLE Epoch: 3/6/2021
Index Date Time (GOES-16) GOES-16 Lat,Lon METOP-B Lat,Lon Distance(km) Time Diff (sec)
1 03/07/2021 02:16:09 -0.02, -75.18 0.68, -71.91 372.50 80
2 03/08/2021 14:35:01 0.02, -75.21 0.28, -76.48 143.77 80
3 03/09/2021 14:17:01 0.02, -75.21 -0.79, -71.47 425.64 80
4 03/11/2021 02:36:00 -0.03, -75.19 -0.24, -76.07 100.72 80
5 03/12/2021 02:12:40 -0.02, -75.19 0.90, -71.08 469.11 80
6 03/13/2021 14:31:32 0.02, -75.24 0.13, -75.63 45.75 80
7 03/16/2021 02:32:31 -0.02, -75.24 -0.02, -75.24 0.79 80
8 03/18/2021 14:30:43 0.02, -75.30 -0.09, -74.80 56.77 80
9 03/20/2021 02:49:43 -0.02, -75.30 -0.92, -79.40 467.20 80
